格洛纳斯-719 COSMOS 1594 [GLONASS]

导读 | 星芒AI

COSMOS 1594 是一颗俄罗斯 GLONASS 卫星,于 1985 年 12 月 20 日发射,用于全球导航卫星系统。该卫星属于 GLONASS-M 系列,设计用于提供高精度的定位和导航服务。它运行在中地球轨道,轨道高度约 19,100 公里,倾角为 64.8 度。COSMOS 1594 在轨期间为俄罗斯及全球用户提供了关键的导航支持,直到其任务结束。该卫星的发射标志着 GLONASS 系统现代化的重要一步。

基本信息
目录编号:
15260
目录名称:
COSMOS 1594 (GLONASS)
国际标识:
1984-095B
轨道中心:
EARTH
卫星名称:
格洛纳斯-719
卫星全名:
格洛纳斯-719 COSMOS 1594 [GLONASS]
卫星状态:
在轨 (已飞行15033 天)
发射日期:
1984-09-04 UTC
国别 :
俄罗斯(独联体) (CIS)
星等 :
--
轨道信息
数据来源 国际轨道数据
星历时间: 2025-10-09T20:14:48+0800
轨道信息已过期22天
半长轴: 25545.207km
偏心率: 0.0004625
轨道倾角: 64.647°
近地点辐角 186.924°
升交点赤经 83.130°
平近点角 0.264°
近地点: 19155.257km
远地点: 19178.887km
周期: 677.211分钟
每日圈数: 2.126369
详细信息
平衡模式:
三轴稳定
覆盖范围:
全球
运营商:
列舍特涅夫卫星信息系统
运营商所在国:
俄罗斯
制造商(研发单位):
列舍特涅夫卫星信息系统
制造商所在国:
俄罗斯
使用方式:
暂无
卫星简介
格洛纳斯(GLONASS )是苏联/俄罗斯研制卫星导航系统。标准配置为24颗卫星,其中18颗卫星就能保证该系统为俄罗斯境内用户提供全部服务。该卫星已退役。
2D轨道图
3D轨道图
轨道高度分析图
轨道倾角分析图
轨道综合分析图
查看轨道综合分析图